Toronto Pearson, Ontario

5:59 PM EST on November 11, 2019 (GMT -0500)
Toronto-Pearson International

Weather History for CYYZ - October, 2019

Change the Weather History Date:

Sunday, October 13, 2019

  Actual Average Record
Temperature  
Mean Temperature 50 °F -  
Max Temperature 62 °F 52 °F 77 °F (2008)
Min Temperature 39 °F 35 °F 27 °F (2012)
Degree Days  
Heating Degree Days 14    
Moisture  
Dew Point 38 °F    
Average Humidity 57    
Maximum Humidity 77    
Minimum Humidity 24    
Precipitation  
Precipitation 0.00 in 0.09 in - ()
Sea Level Pressure  
Sea Level Pressure 29.91 in    
Wind  
Wind Speed 12 mph ()    
Max Wind Speed 28 mph    
Max Gust Speed 36 mph    
Visibility 15.0 miles    
Events      
Averages and records for this station are not official NWS values.
T = Trace of Precipitation, MM = Missing Value Source: Averaged Metar Reports

Daily Weather History Graph

Daily Weather History Graph

Search for Another Location

Airport or City:

Astronomy

Oct. 13, 2019 Rise Set
Actual Time 7:30 AM EDT 6:38 PM EDT
Civil Twilight 7:01 AM EDT 7:07 PM EDT
Nautical Twilight 6:27 AM EDT 7:40 PM EDT
Astronomical Twilight 5:54 AM EDT 8:14 PM EDT
Moon 7:02 PM EDT (10/13) 6:59 AM EDT (10/13)
Length of Visible Light 12h 06m
Length of Day
11h 08m
Full, 100% of the Moon is Illuminated
Oct 13
Full
Oct 13
Full
Oct 21
Last Quarter
Oct 27
New
Nov 4
First Quarter

Hourly Weather History & Observations

Time (EDT) Temp. Windchill Dew Point Humidity Pressure Visibility Wind Dir Wind Speed Gust Speed Precip Events Conditions
1:00 AM 42.8 °F 38.0 °F 33.8 °F 70% 30.02 in 15.0 mi South 8.1 mph - N/A   Scattered Clouds
2:00 AM 43 °F - 34 °F 60% 30.01 in 15 mi South 9.2 mph - -   Scattered Clouds
2:00 AM 42.8 °F 37.5 °F 33.8 °F 70% 30.01 in 15.0 mi South 9.2 mph - N/A   Partly Cloudy
4:00 AM 41.0 °F 38.0 °F 33.8 °F 76% 30.00 in 15.0 mi East 4.6 mph - N/A   Clear
5:00 AM 40 °F - 33 °F 68% 30.00 in 15 mi SSE 4.6 mph - -  
5:00 AM 41.0 °F 37.1 °F 33.8 °F 76% 30.00 in 15.0 mi SSE 5.8 mph - N/A   Clear
6:00 AM 42.8 °F 39.3 °F 33.8 °F 70% 30.00 in 15.0 mi SSE 5.8 mph - N/A   Partly Cloudy
7:00 AM 44.6 °F 39.7 °F 37.4 °F 76% 29.98 in 15.0 mi SSE 9.2 mph - N/A   Partly Cloudy
8:00 AM 45 °F - 38 °F 68% 29.98 in 15 mi SSE 12.7 mph - -   Scattered Clouds
8:00 AM 44.6 °F 38.8 °F 37.4 °F 76% 29.98 in 15.0 mi SSE 11.5 mph - N/A   Partly Cloudy
9:00 AM 50.0 °F - 42.8 °F 76% 29.97 in 15.0 mi SSE 12.7 mph - N/A   Partly Cloudy
10:00 AM 53.6 °F - 46.4 °F 77% 29.96 in 15.0 mi South 17.3 mph 28.8 mph N/A   Partly Cloudy
11:00 AM 56 °F - 45 °F 56% 29.95 in 15 mi South 20.7 mph - -  
11:00 AM 55.4 °F - 44.6 °F 67% 29.95 in 15.0 mi South 19.6 mph 28.8 mph N/A   Scattered Clouds
12:00 PM 57.2 °F - 44.6 °F 63% 29.92 in 15.0 mi South 21.9 mph 32.2 mph N/A   Scattered Clouds
1:00 PM 57.2 °F - 42.8 °F 59% 29.89 in 15.0 mi South 26.5 mph 34.5 mph N/A   Scattered Clouds
2:00 PM 59 °F - 40 °F 38% 29.86 in 15 mi South 23.0 mph - -   Scattered Clouds
2:00 PM 59.0 °F - 41.0 °F 51% 29.86 in 15.0 mi South 27.6 mph - N/A   Scattered Clouds
3:00 PM 60.8 °F - 39.2 °F 45% 29.83 in 15.0 mi South 20.7 mph 27.6 mph N/A   Scattered Clouds
4:00 PM 60.8 °F - 33.8 °F 36% 29.81 in 15.0 mi South 24.2 mph 35.7 mph N/A   Partly Cloudy
5:00 PM 62 °F - 35 °F 24% 29.80 in 15 mi South 21.9 mph - -  
5:00 PM 62.6 °F - 33.8 °F 34% 29.80 in 15.0 mi South 19.6 mph 31.1 mph N/A   Partly Cloudy
6:00 PM 60.8 °F - 33.8 °F 36% 29.79 in 15.0 mi South 19.6 mph 32.2 mph N/A   Partly Cloudy
8:00 PM 58 °F - 37 °F 34% 29.80 in 15 mi South 13.8 mph - -   Scattered Clouds
8:00 PM 59.0 °F - 37.4 °F 45% 29.80 in 15.0 mi South 15.0 mph - N/A   Partly Cloudy
9:00 PM 57.2 °F - 37.4 °F 48% 29.80 in 15.0 mi South 15.0 mph - N/A   Partly Cloudy
10:00 PM 57.2 °F - 39.2 °F 51% 29.83 in 15.0 mi WSW 9.2 mph 17.3 mph N/A   Scattered Clouds
11:00 PM 50 °F - 38 °F 52% 29.86 in 15 mi NW 17.3 mph - -  
11:00 PM 50.0 °F - 37.4 °F 62% 29.86 in 15.0 mi NW 19.6 mph 26.5 mph N/A   Scattered Clouds